Radiation Dose at Monitoring Post of Fukushima Daini Nuclear Power Station
Date,Time,MP-1(microSv/h),MP-2(microSv/h),MP-3(microSv/h),MP-4(microSv/h),MP-5(microSv/h),MP-6(microSv/h),MP-7(microSv/h),Wind Direction,Wind Velocity(m/s),Rain
2019/06/24,00:00,0.187,0.169,0.284,0.268,0.265,0.142,0.088,north-northwest,4.4,No
2019/06/24,00:10,0.188,0.171,0.285,0.268,0.267,0.141,0.088,north-northwest,2.8,No
2019/06/24,00:20,0.188,0.170,0.285,0.267,0.265,0.141,0.088,north,3.3,No
2019/06/24,00:30,0.189,0.170,0.284,0.266,0.267,0.143,0.087,north-northwest,3.1,No
2019/06/24,00:40,0.188,0.169,0.285,0.268,0.266,0.141,0.088,north-northwest,3.6,No
2019/06/24,00:50,0.189,0.170,0.284,0.266,0.267,0.142,0.088,north-northwest,3.6,No
2019/06/24,01:00,0.188,0.169,0.285,0.268,0.267,0.141,0.088,north,3.5,No
2019/06/24,01:10,0.188,0.170,0.283,0.268,0.267,0.142,0.088,north-northwest,2.8,No
2019/06/24,01:20,0.189,0.168,0.285,0.268,0.268,0.142,0.088,north-northwest,3.5,No
2019/06/24,01:30,0.189,0.170,0.284,0.268,0.267,0.142,0.089,north-northwest,3.5,No
2019/06/24,01:40,0.189,0.169,0.286,0.266,0.267,0.143,0.088,north-northwest,2.8,No
2019/06/24,01:50,0.189,0.170,0.283,0.267,0.265,0.141,0.087,north-northwest,2.5,No
2019/06/24,02:00,0.189,0.168,0.285,0.267,0.268,0.142,0.088,north-northwest,3.9,No
2019/06/24,02:10,0.188,0.169,0.283,0.267,0.265,0.141,0.087,north-northwest,2.6,No
2019/06/24,02:20,0.189,0.169,0.286,0.266,0.267,0.142,0.088,north-northwest,3.5,No
2019/06/24,02:30,0.188,0.171,0.284,0.268,0.265,0.140,0.088,north,3.0,No
2019/06/24,02:40,0.188,0.170,0.286,0.266,0.268,0.143,0.087,north,2.5,No
2019/06/24,02:50,0.187,0.170,0.283,0.268,0.266,0.141,0.088,north,2.7,No
2019/06/24,03:00,0.190,0.169,0.287,0.267,0.268,0.142,0.088,north-northeast,4.1,No
2019/06/24,03:10,0.187,0.169,0.284,0.270,0.265,0.140,0.088,northeast,3.4,No
2019/06/24,03:20,0.189,0.170,0.288,0.266,0.267,0.142,0.088,northeast,2.7,No
2019/06/24,03:30,0.188,0.171,0.284,0.267,0.265,0.141,0.088,northeast,2.6,No
2019/06/24,03:40,0.189,0.171,0.286,0.266,0.267,0.142,0.088,northeast,2.8,No
2019/06/24,03:50,0.188,0.169,0.284,0.268,0.266,0.142,0.088,east-northeast,2.2,No
2019/06/24,04:00,0.190,0.170,0.286,0.266,0.266,0.142,0.088,east-northeast,2.1,No
2019/06/24,04:10,0.188,0.169,0.284,0.269,0.266,0.143,0.088,northeast,2.4,No
2019/06/24,04:20,0.188,0.170,0.285,0.266,0.266,0.141,0.087,northeast,2.3,No
2019/06/24,04:30,0.189,0.170,0.284,0.268,0.267,0.142,0.088,east-northeast,1.9,No
2019/06/24,04:40,0.189,0.171,0.285,0.267,0.265,0.142,0.087,east-northeast,2.2,No
2019/06/24,04:50,0.188,0.170,0.284,0.269,0.268,0.143,0.087,east-northeast,1.4,No
2019/06/24,05:00,0.189,0.170,0.286,0.267,0.264,0.141,0.088,east-northeast,1.5,No
2019/06/24,05:10,0.188,0.168,0.284,0.268,0.268,0.142,0.088,east-northeast,1.5,No
2019/06/24,05:20,0.188,0.170,0.285,0.267,0.265,0.142,0.089,east-northeast,2.5,No
2019/06/24,05:30,0.188,0.170,0.284,0.268,0.267,0.141,0.088,northeast,3.2,No
2019/06/24,05:40,0.189,0.171,0.285,0.267,0.265,0.142,0.088,northeast,2.5,No
2019/06/24,05:50,0.188,0.169,0.284,0.268,0.267,0.142,0.087,northeast,2.3,No
2019/06/24,06:00,0.189,0.170,0.285,0.268,0.265,0.142,0.088,northeast,2.0,Yes
2019/06/24,06:10,0.189,0.170,0.284,0.268,0.268,0.142,0.088,north-northeast,3.7,Yes
2019/06/24,06:20,0.188,0.171,0.285,0.269,0.266,0.142,0.088,north-northeast,3.3,Yes
2019/06/24,06:30,0.190,0.170,0.285,0.267,0.267,0.143,0.088,north-northeast,3.8,Yes
2019/06/24,06:40,0.190,0.170,0.286,0.268,0.267,0.143,0.089,north-northeast,3.6,Yes
2019/06/24,06:50,0.191,0.171,0.284,0.267,0.267,0.143,0.089,north,2.7,Yes
2019/06/24,07:00,0.189,0.172,0.286,0.268,0.267,0.144,0.090,north-northwest,3.3,Yes
2019/06/24,07:10,0.191,0.171,0.286,0.267,0.268,0.143,0.089,north,3.8,Yes
2019/06/24,07:20,0.191,0.171,0.287,0.269,0.269,0.144,0.090,north-northwest,3.8,Yes
2019/06/24,07:30,0.191,0.171,0.286,0.268,0.266,0.142,0.090,north-northwest,3.2,Yes
2019/06/24,07:40,0.189,0.171,0.287,0.269,0.269,0.144,0.089,north,3.0,Yes
2019/06/24,07:50,0.190,0.171,0.286,0.267,0.265,0.143,0.089,north,3.3,Yes
2019/06/24,08:00,0.189,0.171,0.286,0.269,0.267,0.143,0.089,north,4.1,No
2019/06/24,08:10,0.189,0.171,0.285,0.267,0.266,0.143,0.088,north,4.1,Yes
2019/06/24,08:20,0.189,0.170,0.286,0.268,0.268,0.143,0.089,north,3.1,Yes
2019/06/24,08:30,0.189,0.171,0.284,0.267,0.265,0.144,0.089,north-northwest,3.5,Yes
2019/06/24,08:40,0.189,0.171,0.286,0.268,0.269,0.144,0.090,north,3.6,Yes
2019/06/24,08:50,0.190,0.173,0.285,0.267,0.266,0.144,0.090,north,3.1,Yes
2019/06/24,09:00,0.190,0.172,0.287,0.268,0.268,0.144,0.090,north,3.7,Yes
2019/06/24,09:10,0.191,0.172,0.285,0.269,0.266,0.145,0.090,north-northeast,4.2,Yes
2019/06/24,09:20,0.190,0.172,0.288,0.269,0.268,0.145,0.090,north-northeast,4.9,Yes
2019/06/24,09:30,0.192,0.172,0.285,0.267,0.266,0.144,0.090,north-northeast,4.8,Yes
2019/06/24,09:40,0.189,0.171,0.286,0.269,0.269,0.144,0.090,north,4.2,Yes
2019/06/24,09:50,0.189,0.172,0.285,0.268,0.266,0.144,0.089,north,3.7,Yes
2019/06/24,10:00,0.189,0.171,0.286,0.267,0.268,0.143,0.090,north,4.4,Yes
2019/06/24,10:10,0.190,0.172,0.286,0.267,0.266,0.143,0.089,north,4.4,Yes
2019/06/24,10:20,0.189,0.171,0.285,0.267,0.267,0.143,0.090,north,4.4,Yes
2019/06/24,10:30,0.190,0.170,0.284,0.265,0.266,0.143,0.089,north,4.9,Yes
2019/06/24,10:40,0.189,0.171,0.287,0.268,0.267,0.141,0.089,north,4.6,Yes
2019/06/24,10:50,0.190,0.170,0.283,0.266,0.265,0.143,0.089,north,5.9,Yes
2019/06/24,11:00,0.189,0.170,0.286,0.268,0.266,0.142,0.089,north,5.9,Yes
2019/06/24,11:10,0.189,0.170,0.283,0.265,0.264,0.142,0.089,north,7.3,No
2019/06/24,11:20,0.189,0.170,0.285,0.266,0.264,0.142,0.088,north,7.0,No
2019/06/24,11:30,0.188,0.170,0.284,0.265,0.265,0.142,0.088,north,6.5,No
2019/06/24,11:40,0.189,0.169,0.285,0.266,0.267,0.142,0.088,north-northwest,4.8,Yes
2019/06/24,11:50,0.188,0.170,0.282,0.265,0.264,0.143,0.089,north,5.6,Yes
2019/06/24,12:00,0.188,0.169,0.285,0.266,0.265,0.142,0.089,north,6.2,Yes
2019/06/24,12:10,0.190,0.171,0.284,0.265,0.264,0.142,0.089,north-northwest,6.8,Yes
2019/06/24,12:20,0.189,0.169,0.284,0.267,0.265,0.143,0.088,north-northwest,6.4,Yes
2019/06/24,12:30,0.189,0.169,0.284,0.265,0.265,0.143,0.089,north-northwest,6.3,Yes
2019/06/24,12:40,0.189,0.171,0.283,0.268,0.265,0.142,0.089,north,7.7,Yes
2019/06/24,12:50,0.189,0.170,0.287,0.266,0.266,0.143,0.090,north-northwest,5.2,Yes
2019/06/24,13:00,0.190,0.171,0.284,0.267,0.266,0.144,0.091,north-northwest,7.7,Yes
2019/06/24,13:10,0.189,0.172,0.285,0.266,0.266,0.143,0.090,north-northwest,5.4,Yes
2019/06/24,13:20,0.191,0.170,0.283,0.267,0.267,0.144,0.091,north-northwest,5.1,Yes
2019/06/24,13:30,0.191,0.171,0.286,0.265,0.267,0.142,0.089,north-northwest,4.4,Yes
2019/06/24,13:40,0.190,0.171,0.284,0.267,0.264,0.144,0.090,north-northwest,6.0,Yes
2019/06/24,13:50,0.189,0.170,0.286,0.266,0.267,0.142,0.090,north,6.2,Yes
2019/06/24,14:00,0.190,0.171,0.284,0.267,0.265,0.143,0.090,north-northwest,6.4,Yes
2019/06/24,14:10,0.190,0.170,0.286,0.265,0.266,0.143,0.091,north-northwest,6.6,Yes
2019/06/24,14:20,0.190,0.172,0.283,0.268,0.265,0.144,0.090,north,5.6,Yes
2019/06/24,14:30,0.189,0.171,0.287,0.265,0.266,0.143,0.091,-,CALM,Yes
2019/06/24,14:40,0.190,0.172,0.283,0.266,0.265,0.145,0.092,-,CALM,Yes
2019/06/24,14:50,0.189,0.171,0.282,0.265,0.265,0.143,0.091,north,7.0,Yes
2019/06/24,15:00,0.189,0.172,0.283,0.264,0.264,0.145,0.091,north,7.8,Yes
2019/06/24,15:10,0.188,0.171,0.281,0.264,0.265,0.143,0.091,north,7.6,Yes
2019/06/24,15:20,0.188,0.170,0.283,0.265,0.265,0.143,0.091,north,6.0,Yes
2019/06/24,15:30,0.188,0.171,0.280,0.263,0.265,0.141,0.089,north,8.1,No
2019/06/24,15:40,0.188,0.170,0.281,0.264,0.264,0.143,0.089,north,7.7,Yes
2019/06/24,15:50,0.186,0.170,0.281,0.262,0.265,0.141,0.089,north,7.0,Yes
2019/06/24,16:00,0.188,0.168,0.281,0.264,0.263,0.140,0.088,north,6.4,Yes
2019/06/24,16:10,0.186,0.168,0.280,0.262,0.264,0.141,0.088,north,5.6,Yes
2019/06/24,16:20,0.188,0.168,0.280,0.262,0.263,0.140,0.088,north,5.1,No
2019/06/24,16:30,0.185,0.168,0.279,0.262,0.265,0.141,0.087,north,6.4,Yes
2019/06/24,16:40,0.187,0.168,0.281,0.264,0.263,0.140,0.088,north,5.6,Yes
2019/06/24,16:50,0.186,0.169,0.279,0.262,0.264,0.140,0.087,north-northwest,5.7,No
2019/06/24,17:00,0.187,0.167,0.281,0.263,0.262,0.139,0.087,north,5.3,Yes
2019/06/24,17:10,0.187,0.169,0.279,0.262,0.264,0.141,0.087,north-northwest,4.4,Yes
2019/06/24,17:20,0.187,0.168,0.281,0.263,0.264,0.140,0.087,north-northwest,3.5,No
2019/06/24,17:30,0.185,0.168,0.279,0.261,0.264,0.140,0.087,north,3.5,Yes
2019/06/24,17:40,0.187,0.167,0.282,0.263,0.263,0.139,0.087,north,3.2,Yes
2019/06/24,17:50,0.186,0.168,0.279,0.262,0.263,0.141,0.087,north,3.7,No
2019/06/24,18:00,0.186,0.168,0.281,0.263,0.264,0.139,0.087,north-northwest,3.6,Yes
2019/06/24,18:10,0.187,0.168,0.280,0.262,0.263,0.140,0.087,north-northwest,4.4,Yes
2019/06/24,18:20,0.187,0.169,0.280,0.263,0.265,0.141,0.088,north-northwest,4.5,Yes
2019/06/24,18:30,0.188,0.169,0.279,0.262,0.264,0.141,0.088,north,5.7,Yes
2019/06/24,18:40,0.186,0.170,0.283,0.264,0.264,0.141,0.088,north-northwest,5.1,Yes
2019/06/24,18:50,0.187,0.168,0.281,0.263,0.263,0.140,0.088,north,4.5,No
2019/06/24,19:00,0.187,0.169,0.281,0.264,0.266,0.141,0.088,north,4.3,No
2019/06/24,19:10,0.186,0.168,0.281,0.261,0.262,0.140,0.088,north-northwest,4.9,No
2019/06/24,19:20,0.186,0.168,0.283,0.263,0.265,0.141,0.088,north,6.4,No
2019/06/24,19:30,0.187,0.168,0.279,0.262,0.262,0.140,0.088,north-northwest,6.2,No
2019/06/24,19:40,0.186,0.169,0.281,0.261,0.265,0.140,0.086,north-northwest,5.2,No
2019/06/24,19:50,0.187,0.168,0.281,0.265,0.261,0.139,0.087,north-northwest,4.2,Yes
2019/06/24,20:00,0.185,0.169,0.283,0.264,0.265,0.139,0.087,north-northwest,4.2,Yes
2019/06/24,20:10,0.186,0.168,0.280,0.262,0.263,0.139,0.087,north,3.7,Yes
2019/06/24,20:20,0.186,0.168,0.282,0.263,0.264,0.140,0.087,north,3.5,Yes
2019/06/24,20:30,0.187,0.167,0.279,0.263,0.262,0.140,0.088,north,3.1,No
2019/06/24,20:40,0.187,0.169,0.282,0.263,0.266,0.140,0.087,north-northwest,3.3,No
2019/06/24,20:50,0.187,0.168,0.279,0.263,0.263,0.140,0.086,north,3.4,No
2019/06/24,21:00,0.186,0.169,0.282,0.262,0.263,0.139,0.087,north-northwest,3.3,No
2019/06/24,21:10,0.187,0.167,0.280,0.264,0.264,0.139,0.087,north-northwest,3.3,No
2019/06/24,21:20,0.186,0.169,0.282,0.262,0.263,0.139,0.088,north-northwest,2.7,No
2019/06/24,21:30,0.187,0.167,0.279,0.264,0.262,0.140,0.087,north,3.5,No
2019/06/24,21:40,0.187,0.169,0.283,0.262,0.263,0.139,0.088,north-northeast,4.9,Yes
2019/06/24,21:50,0.187,0.167,0.281,0.265,0.264,0.140,0.086,north-northeast,5.7,No
2019/06/24,22:00,0.185,0.168,0.281,0.262,0.262,0.138,0.087,north-northeast,6.3,No
2019/06/24,22:10,0.187,0.167,0.279,0.263,0.264,0.140,0.088,north-northeast,5.9,No
2019/06/24,22:20,0.186,0.168,0.282,0.262,0.262,0.139,0.087,north,3.0,No
2019/06/24,22:30,0.188,0.167,0.280,0.264,0.264,0.140,0.087,northwest,3.2,Yes
2019/06/24,22:40,0.187,0.168,0.282,0.261,0.263,0.139,0.087,northwest,4.1,No
2019/06/24,22:50,0.187,0.167,0.280,0.263,0.265,0.140,0.087,northwest,3.5,No
2019/06/24,23:00,0.186,0.168,0.282,0.262,0.262,0.139,0.086,north-northwest,4.0,No
2019/06/24,23:10,0.186,0.168,0.279,0.265,0.265,0.140,0.087,north-northwest,3.2,No
2019/06/24,23:20,0.185,0.169,0.282,0.262,0.264,0.139,0.087,north,1.9,No
2019/06/24,23:30,0.187,0.168,0.280,0.263,0.264,0.140,0.087,north-northeast,0.8,No
2019/06/24,23:40,0.187,0.168,0.282,0.263,0.262,0.139,0.087,north,1.3,No
2019/06/24,23:50,0.186,0.169,0.279,0.264,0.264,0.139,0.086,north,0.7,No
